| time (UTC) | temp F | wind direction | speed MPH | gust MPH | rain 1hr in | rain 24hr in | rain mn in | humidity % | barometer mb |
| 20260507031009 | 74 | 175 | 1.0 | 2.0 | 0.00 | 0.00 | 0.00 | 78 | 1016.3 |
| 20260507030509 | 74 | 174 | 0.0 | 2.0 | 0.00 | 0.00 | 0.00 | 77 | 1016.3 |
| 20260507030021 | 75 | 166 | 1.0 | 3.0 | 0.00 | 0.00 | 0.00 | 77 | 1016.4 |
| 20260507025507 | 75 | 170 | 1.0 | 4.0 | 0.00 | 0.00 | 0.00 | 77 | 1016.5 |
| 20260507025003 | 75 | 157 | 2.0 | 4.0 | 0.00 | 0.00 | 0.00 | 76 | 1016.1 |
| 20260507024507 | 75 | 163 | 3.0 | 3.0 | 0.00 | 0.00 | 0.00 | 77 | 1016.1 |
| 20260507024005 | 75 | 174 | 2.0 | 3.0 | 0.00 | 0.00 | 0.00 | 77 | 1016.1 |
| 20260507023503 | 75 | 180 | 2.0 | 3.0 | 0.00 | 0.00 | 0.00 | 77 | 1016.1 |
| 20260507023004 | 75 | 169 | 2.0 | 3.0 | 0.00 | 0.00 | 0.00 | 77 | 1015.8 |
| 20260507022504 | 75 | 203 | 0.0 | 2.0 | 0.00 | 0.00 | 0.00 | 76 | 1016.0 |
| 20260507022005 | 76 | 131 | 0.0 | 2.0 | 0.00 | 0.00 | 0.00 | 75 | 1016.1 |
| 20260507021006 | 77 | 105 | 1.0 | 2.0 | 0.00 | 0.00 | 0.00 | 73 | 1015.9 |
| 20260507020504 | 77 | 142 | 0.0 | 2.0 | 0.00 | 0.00 | 0.00 | 73 | 1015.9 |
| 20260507020014 | 78 | 142 | 0.0 | 3.0 | 0.00 | 0.00 | 0.00 | 72 | 1015.8 |
| 20260507015504 | 78 | 150 | 1.0 | 3.0 | 0.00 | 0.00 | 0.00 | 72 | 1015.8 |
| 20260507015009 | 78 | 210 | 1.0 | 5.0 | 0.00 | 0.00 | 0.00 | 70 | 1015.8 |
| 20260507014522 | 78 | 160 | 2.0 | 5.0 | 0.00 | 0.00 | 0.00 | 70 | 1015.7 |
| 20260507014004 | 78 | 141 | 3.0 | 5.0 | 0.00 | 0.00 | 0.00 | 70 | 1015.7 |
| 20260507013503 | 78 | 178 | 3.0 | 5.0 | 0.00 | 0.00 | 0.00 | 71 | 1015.8 |
| 20260507013004 | 78 | 212 | 1.0 | 3.0 | 0.00 | 0.00 | 0.00 | 72 | 1015.9 |
| 20260507012505 | 78 | 158 | 0.0 | 3.0 | 0.00 | 0.00 | 0.00 | 72 | 1015.9 |
| 20260507012004 | 78 | 104 | 0.0 | 2.0 | 0.00 | 0.00 | 0.00 | 71 | 1016.0 |
| 20260507011006 | 79 | 165 | 1.0 | 2.0 | 0.00 | 0.00 | 0.00 | 70 | 1015.8 |
| 20260507010505 | 79 | 143 | 0.0 | 2.0 | 0.00 | 0.00 | 0.00 | 70 | 1015.6 |
| 20260507005508 | 80 | 164 | 2.0 | 3.0 | 0.00 | 0.00 | 0.00 | 68 | 1015.7 |
| 20260507005007 | 80 | 159 | 2.0 | 3.0 | 0.00 | 0.00 | 0.00 | 67 | 1015.6 |
| 20260507002504 | 83 | 167 | 1.0 | 2.0 | 0.00 | 0.00 | 0.00 | 60 | 1015.6 |
| 20260507002004 | 84 | 110 | 2.0 | 2.0 | 0.00 | 0.00 | 0.00 | 58 | 1015.6 |
| 20260507001511 | 85 | 256 | 0.0 | 2.0 | 0.00 | 0.00 | 0.00 | 56 | 1015.4 |
| 20260507001006 | 85 | 255 | 0.0 | 1.0 | 0.00 | 0.00 | 0.00 | 55 | 1015.2 |
| 20260507000508 | 86 | 298 | 0.0 | 3.0 | 0.00 | 0.00 | 0.00 | 53 | 1014.9 |
| 20260507000010 | 86 | 298 | 0.0 | 4.0 | 0.00 | 0.00 | 0.00 | 53 | 1015.0 |
| 20260506235504 | 86 | 311 | 1.0 | 4.0 | 0.00 | 0.00 | 0.00 | 52 | 1015.0 |
| 20260506235007 | 86 | 301 | 1.0 | 4.0 | 0.00 | 0.00 | 0.00 | 52 | 1015.0 |
| 20260506234517 | 87 | 298 | 3.0 | 4.0 | 0.00 | 0.00 | 0.00 | 52 | 1014.9 |
| 20260506234005 | 87 | 309 | 3.0 | 7.0 | 0.00 | 0.00 | 0.00 | 52 | 1014.7 |
| 20260506233507 | 87 | 309 | 4.0 | 6.0 | 0.00 | 0.00 | 0.00 | 51 | 1014.9 |
| 20260506233021 | 87 | 309 | 2.0 | 6.0 | 0.00 | 0.00 | 0.00 | 51 | 1015.1 |
| 20260506232003 | 88 | 292 | 6.0 | 10.0 | 0.00 | 0.00 | 0.00 | 50 | 1015.0 |
| 20260506231528 | 88 | 303 | 7.0 | 10.0 | 0.00 | 0.00 | 0.00 | 50 | 1014.9 |
| 20260506231004 | 89 | 284 | 5.0 | 8.0 | 0.00 | 0.00 | 0.00 | 49 | 1014.7 |
| 20260506230504 | 89 | 238 | 5.0 | 8.0 | 0.00 | 0.00 | 0.00 | 49 | 1014.7 |
| 20260506230005 | 89 | 298 | 3.0 | 9.0 | 0.00 | 0.00 | 0.00 | 49 | 1014.6 |
| 20260506225502 | 89 | 301 | 3.0 | 11.0 | 0.00 | 0.00 | 0.00 | 48 | 1014.8 |
| 20260506225003 | 89 | 314 | 6.0 | 11.0 | 0.00 | 0.00 | 0.00 | 48 | 1014.8 |
| 20260506224517 | 89 | 328 | 6.0 | 11.0 | 0.00 | 0.00 | 0.00 | 47 | 1014.8 |
| 20260506224001 | 90 | 297 | 7.0 | 12.0 | 0.00 | 0.00 | 0.00 | 46 | 1014.9 |
| 20260506223503 | 90 | 228 | 5.0 | 12.0 | 0.00 | 0.00 | 0.00 | 45 | 1015.0 |
| 20260506220503 | 91 | 229 | 7.0 | 13.0 | 0.00 | 0.00 | 0.00 | 43 | 1015.1 |
| 20260506220008 | 91 | 227 | 6.0 | 13.0 | 0.00 | 0.00 | 0.00 | 42 | 1015.1 |
| 20260506215506 | 90 | 232 | 5.0 | 14.0 | 0.00 | 0.00 | 0.00 | 43 | 1015.0 |
| 20260506215005 | 90 | 194 | 5.0 | 14.0 | 0.00 | 0.00 | 0.00 | 44 | 1014.9 |
| 20260506214503 | 90 | 228 | 7.0 | 12.0 | 0.00 | 0.00 | 0.00 | 42 | 1014.9 |
| 20260506214003 | 91 | 311 | 3.0 | 10.0 | 0.00 | 0.00 | 0.00 | 43 | 1014.9 |
| 20260506213003 | 92 | 199 | 7.0 | 11.0 | 0.00 | 0.00 | 0.00 | 39 | 1014.9 |
| 20260506212013 | 91 | 275 | 7.0 | 15.0 | 0.00 | 0.00 | 0.00 | 40 | 1014.8 |
| 20260506211504 | 92 | 234 | 10.0 | 15.0 | 0.00 | 0.00 | 0.00 | 38 | 1014.9 |
| 20260506211009 | 92 | 198 | 4.0 | 11.0 | 0.00 | 0.00 | 0.00 | 40 | 1014.9 |
| 20260506210033 | 92 | 217 | 7.0 | 14.0 | 0.00 | 0.00 | 0.00 | 39 | 1015.0 |
| 20260506205004 | 92 | 190 | 8.0 | 13.0 | 0.00 | 0.00 | 0.00 | 39 | 1015.0 |
| 20260506204511 | 92 | 207 | 8.0 | 13.0 | 0.00 | 0.00 | 0.00 | 41 | 1015.0 |
| 20260506204005 | 91 | 166 | 4.0 | 8.0 | 0.00 | 0.00 | 0.00 | 41 | 1015.0 |
| 20260506203005 | 91 | 308 | 1.0 | 9.0 | 0.00 | 0.00 | 0.00 | 41 | 1015.1 |
| 20260506202503 | 91 | 197 | 4.0 | 13.0 | 0.00 | 0.00 | 0.00 | 42 | 1015.2 |
| 20260506202001 | 91 | 259 | 8.0 | 13.0 | 0.00 | 0.00 | 0.00 | 41 | 1015.2 |
| 20260506195503 | 91 | 173 | 5.0 | 10.0 | 0.00 | 0.00 | 0.00 | 42 | 1015.6 |
| 20260506194526 | 90 | 266 | 7.0 | 12.0 | 0.00 | 0.00 | 0.00 | 40 | 1015.7 |
| 20260506193510 | 90 | 287 | 7.0 | 11.0 | 0.00 | 0.00 | 0.00 | 42 | 1015.7 |
| 20260506192004 | 90 | 255 | 8.0 | 14.0 | 0.00 | 0.00 | 0.00 | 45 | 1016.0 |
| 20260506191010 | 89 | 188 | 4.0 | 16.0 | 0.00 | 0.00 | 0.00 | 47 | 1016.3 |
| 20260506184526 | 89 | 209 | 4.0 | 8.0 | 0.00 | 0.00 | 0.00 | 47 | 1016.5 |
| 20260506183507 | 89 | 243 | 3.0 | 9.0 | 0.00 | 0.00 | 0.00 | 48 | 1016.6 |
| 20260506183025 | 89 | 186 | 5.0 | 12.0 | 0.00 | 0.00 | 0.00 | 48 | 1016.6 |
| 20260506182510 | 89 | 197 | 7.0 | 15.0 | 0.00 | 0.00 | 0.00 | 50 | 1016.6 |
| 20260506182008 | 89 | 245 | 6.0 | 15.0 | 0.00 | 0.00 | 0.00 | 47 | 1016.8 |
| 20260506180504 | 88 | 203 | 10.0 | 16.0 | 0.00 | 0.00 | 0.00 | 47 | 1017.0 |
| 20260506180009 | 88 | 207 | 5.0 | 9.0 | 0.00 | 0.00 | 0.00 | 46 | 1017.0 |
| 20260506175004 | 87 | 205 | 3.0 | 17.0 | 0.00 | 0.00 | 0.00 | 48 | 1017.2 |
| 20260506174005 | 87 | 161 | 3.0 | 12.0 | 0.00 | 0.00 | 0.00 | 50 | 1017.2 |
| 20260506173509 | 87 | 184 | 3.0 | 12.0 | 0.00 | 0.00 | 0.00 | 49 | 1017.3 |
| 20260506172013 | 86 | 212 | 6.0 | 12.0 | 0.00 | 0.00 | 0.00 | 52 | 1017.6 |
| 20260506171516 | 86 | 221 | 8.0 | 12.0 | 0.00 | 0.00 | 0.00 | 53 | 1017.7 |
| 20260506170513 | 85 | 190 | 6.0 | 11.0 | 0.00 | 0.00 | 0.00 | 53 | 1017.9 |
| 20260506165004 | 85 | 243 | 7.0 | 14.0 | 0.00 | 0.00 | 0.00 | 54 | 1017.9 |
| 20260506164508 | 85 | 255 | 7.0 | 14.0 | 0.00 | 0.00 | 0.00 | 54 | 1018.0 |
| 20260506164006 | 85 | 289 | 5.0 | 15.0 | 0.00 | 0.00 | 0.00 | 55 | 1018.0 |
| 20260506163510 | 85 | 238 | 10.0 | 15.0 | 0.00 | 0.00 | 0.00 | 56 | 1018.0 |
| 20260506163011 | 85 | 217 | 10.0 | 15.0 | 0.00 | 0.00 | 0.00 | 56 | 1018.0 |
| 20260506162504 | 84 | 212 | 9.0 | 15.0 | 0.00 | 0.00 | 0.00 | 56 | 1018.2 |
| 20260506162009 | 84 | 215 | 5.0 | 13.0 | 0.00 | 0.00 | 0.00 | 57 | 1018.2 |
| 20260506160513 | 83 | 200 | 7.0 | 13.0 | 0.00 | 0.00 | 0.00 | 58 | 1018.1 |
| 20260506160028 | 83 | 212 | 8.0 | 13.0 | 0.00 | 0.00 | 0.00 | 60 | 1018.1 |
| 20260506155510 | 83 | 231 | 8.0 | 14.0 | 0.00 | 0.00 | 0.00 | 58 | 1018.1 |
| 20260506154504 | 82 | 193 | 5.0 | 15.0 | 0.00 | 0.00 | 0.00 | 59 | 1018.3 |
| 20260506154007 | 82 | 189 | 6.0 | 14.0 | 0.00 | 0.00 | 0.00 | 59 | 1018.3 |
| 20260506153003 | 82 | 166 | 9.0 | 15.0 | 0.00 | 0.00 | 0.00 | 62 | 1018.3 |
| 20260506152501 | 81 | 198 | 7.0 | 19.0 | 0.00 | 0.00 | 0.00 | 61 | 1018.4 |
| 20260506152002 | 81 | 203 | 13.0 | 19.0 | 0.00 | 0.00 | 0.00 | 61 | 1018.4 |
| 20260506151503 | 81 | 215 | 3.0 | 14.0 | 0.00 | 0.00 | 0.00 | 61 | 1018.2 |
| 20260506151002 | 81 | 226 | 7.0 | 16.0 | 0.00 | 0.00 | 0.00 | 62 | 1018.2 |
| 20260506150503 | 80 | 211 | 11.0 | 16.0 | 0.00 | 0.00 | 0.00 | 62 | 1018.1 |
| 20260506150005 | 80 | 196 | 12.0 | 17.0 | 0.00 | 0.00 | 0.00 | 62 | 1018.1 |
| 20260506145502 | 80 | 180 | 8.0 | 17.0 | 0.00 | 0.00 | 0.00 | 63 | 1018.2 |
| 20260506145004 | 80 | 207 | 11.0 | 17.0 | 0.00 | 0.00 | 0.00 | 64 | 1018.2 |
| 20260506144504 | 79 | 214 | 7.0 | 14.0 | 0.00 | 0.00 | 0.00 | 64 | 1018.2 |
| 20260506144002 | 79 | 218 | 9.0 | 14.0 | 0.00 | 0.00 | 0.00 | 64 | 1018.2 |
| 20260506143503 | 79 | 226 | 9.0 | 17.0 | 0.00 | 0.00 | 0.00 | 63 | 1018.3 |
| 20260506143008 | 79 | 236 | 8.0 | 17.0 | 0.00 | 0.00 | 0.00 | 64 | 1018.3 |
| 20260506142506 | 79 | 218 | 3.0 | 15.0 | 0.00 | 0.00 | 0.00 | 65 | 1018.2 |
| 20260506142003 | 78 | 206 | 9.0 | 16.0 | 0.00 | 0.00 | 0.00 | 64 | 1018.1 |
| 20260506141502 | 78 | 228 | 7.0 | 16.0 | 0.00 | 0.00 | 0.00 | 66 | 1018.1 |
| 20260506141004 | 78 | 218 | 10.0 | 16.0 | 0.00 | 0.00 | 0.00 | 66 | 1018.1 |
| 20260506140502 | 77 | 157 | 7.0 | 13.0 | 0.00 | 0.00 | 0.00 | 67 | 1018.1 |
| 20260506140004 | 77 | 180 | 9.0 | 15.0 | 0.00 | 0.00 | 0.00 | 66 | 1018.1 |
| 20260506135506 | 76 | 190 | 9.0 | 15.0 | 0.00 | 0.00 | 0.00 | 69 | 1018.0 |
| 20260506135003 | 76 | 202 | 9.0 | 15.0 | 0.00 | 0.00 | 0.00 | 69 | 1018.0 |
| 20260506134504 | 76 | 200 | 10.0 | 16.0 | 0.00 | 0.00 | 0.00 | 71 | 1018.0 |
| 20260506134003 | 75 | 143 | 9.0 | 16.0 | 0.00 | 0.00 | 0.00 | 73 | 1018.2 |
| 20260506133504 | 74 | 193 | 9.0 | 16.0 | 0.00 | 0.00 | 0.00 | 73 | 1018.2 |
| 20260506133006 | 74 | 182 | 12.0 | 16.0 | 0.00 | 0.00 | 0.00 | 74 | 1018.2 |
| 20260506132506 | 74 | 193 | 10.0 | 16.0 | 0.00 | 0.00 | 0.00 | 74 | 1018.2 |
| 20260506132003 | 73 | 200 | 10.0 | 15.0 | 0.00 | 0.00 | 0.00 | 74 | 1018.2 |
| 20260506131003 | 72 | 218 | 9.0 | 13.0 | 0.00 | 0.00 | 0.00 | 75 | 1018.2 |
| 20260506130506 | 71 | 191 | 6.0 | 11.0 | 0.00 | 0.00 | 0.00 | 77 | 1018.0 |
| 20260506130003 | 71 | 178 | 5.0 | 8.0 | 0.00 | 0.00 | 0.00 | 77 | 1018.1 |
| 20260506125503 | 70 | 200 | 6.0 | 8.0 | 0.00 | 0.00 | 0.00 | 77 | 1018.1 |
| 20260506125004 | 69 | 195 | 5.0 | 8.0 | 0.00 | 0.00 | 0.00 | 78 | 1018.0 |
| 20260506124503 | 69 | 192 | 5.0 | 8.0 | 0.00 | 0.00 | 0.00 | 79 | 1017.9 |
| 20260506123005 | 66 | 186 | 4.0 | 6.0 | 0.00 | 0.00 | 0.00 | 83 | 1017.8 |
| 20260506122504 | 65 | 188 | 4.0 | 6.0 | 0.00 | 0.00 | 0.00 | 85 | 1017.8 |
| 20260506122003 | 64 | 198 | 2.0 | 4.0 | 0.00 | 0.00 | 0.00 | 86 | 1017.7 |
| 20260506121003 | 63 | 145 | 1.0 | 2.0 | 0.00 | 0.00 | 0.00 | 89 | 1017.6 |
| 20260506120507 | 62 | 179 | 0.0 | 2.0 | 0.00 | 0.00 | 0.00 | 89 | 1017.6 |
| 20260506115002 | 61 | 162 | 1.0 | 2.0 | 0.00 | 0.00 | 0.00 | 90 | 1017.3 |
| 20260506114503 | 61 | 163 | 1.0 | 2.0 | 0.00 | 0.00 | 0.00 | 91 | 1017.3 |
| 20260506114005 | 60 | 153 | 1.0 | 2.0 | 0.00 | 0.00 | 0.00 | 91 | 1017.2 |
| 20260506113504 | 60 | 174 | 1.0 | 2.0 | 0.00 | 0.00 | 0.00 | 91 | 1017.2 |
| 20260506113006 | 60 | 174 | 1.0 | 2.0 | 0.00 | 0.00 | 0.00 | 91 | 1017.3 |
| 20260506112505 | 59 | 173 | 1.0 | 1.0 | 0.00 | 0.00 | 0.00 | 91 | 1017.3 |
| 20260506112004 | 59 | 165 | 0.0 | 2.0 | 0.00 | 0.00 | 0.00 | 91 | 1017.3 |
| 20260506111505 | 59 | 168 | 1.0 | 2.0 | 0.00 | 0.00 | 0.00 | 91 | 1017.3 |
| 20260506111004 | 59 | 184 | 0.0 | 2.0 | 0.00 | 0.00 | 0.00 | 91 | 1017.3 |
| 20260506110504 | 58 | 183 | 1.0 | 2.0 | 0.00 | 0.00 | 0.00 | 90 | 1017.4 |
| 20260506110011 | 58 | 178 | 0.0 | 2.0 | 0.00 | 0.00 | 0.00 | 90 | 1017.2 |
| 20260506105504 | 58 | 179 | 0.0 | 2.0 | 0.00 | 0.00 | 0.00 | 90 | 1017.1 |
| 20260506103006 | 59 | 168 | 0.0 | 0.0 | 0.00 | 0.00 | 0.00 | 89 | 1016.8 |
| 20260506102504 | 59 | 168 | 0.0 | 0.0 | 0.00 | 0.00 | 0.00 | 89 | 1016.9 |
| 20260506102004 | 59 | 168 | 0.0 | 2.0 | 0.00 | 0.00 | 0.00 | 89 | 1016.8 |
| 20260506101516 | 59 | 168 | 0.0 | 2.0 | 0.00 | 0.00 | 0.00 | 89 | 1016.9 |
| 20260506101004 | 59 | 168 | 0.0 | 2.0 | 0.00 | 0.00 | 0.00 | 89 | 1016.8 |
| 20260506100504 | 60 | 163 | 1.0 | 2.0 | 0.00 | 0.00 | 0.00 | 89 | 1016.7 |
| 20260506100014 | 60 | 179 | 1.0 | 2.0 | 0.00 | 0.00 | 0.00 | 89 | 1016.8 |
| 20260506095506 | 59 | 174 | 2.0 | 2.0 | 0.00 | 0.00 | 0.00 | 90 | 1016.7 |
| 20260506094005 | 59 | 188 | 1.0 | 2.0 | 0.00 | 0.00 | 0.00 | 89 | 1016.7 |
| 20260506093022 | 59 | 176 | 0.0 | 1.0 | 0.00 | 0.00 | 0.00 | 89 | 1016.8 |
| 20260506092504 | 59 | 176 | 1.0 | 1.0 | 0.00 | 0.00 | 0.00 | 89 | 1016.8 |
| 20260506092007 | 59 | 171 | 1.0 | 1.0 | 0.00 | 0.00 | 0.00 | 89 | 1016.7 |
| 20260506091505 | 59 | 171 | 0.0 | 1.0 | 0.00 | 0.00 | 0.00 | 89 | 1016.7 |
| 20260506091005 | 59 | 171 | 0.0 | 0.0 | 0.00 | 0.00 | 0.00 | 89 | 1016.6 |
| 20260506090504 | 60 | 171 | 0.0 | 2.0 | 0.00 | 0.00 | 0.00 | 88 | 1016.7 |
| 20260506090014 | 60 | 171 | 0.0 | 2.0 | 0.00 | 0.00 | 0.00 | 88 | 1016.5 |
| 20260506085505 | 60 | 171 | 0.0 | 1.0 | 0.00 | 0.00 | 0.00 | 88 | 1016.5 |
| 20260506085004 | 60 | 171 | 1.0 | 2.0 | 0.00 | 0.00 | 0.00 | 88 | 1016.4 |
| 20260506084511 | 60 | 176 | 0.0 | 2.0 | 0.00 | 0.00 | 0.00 | 88 | 1016.5 |
| 20260506084002 | 60 | 176 | 0.0 | 2.0 | 0.00 | 0.00 | 0.00 | 88 | 1016.5 |
| 20260506083503 | 60 | 179 | 0.0 | 2.0 | 0.00 | 0.00 | 0.00 | 88 | 1016.5 |
| 20260506083004 | 61 | 182 | 0.0 | 2.0 | 0.00 | 0.00 | 0.00 | 87 | 1016.6 |
| 20260506082503 | 60 | 184 | 0.0 | 2.0 | 0.00 | 0.00 | 0.00 | 87 | 1016.7 |
| 20260506082003 | 61 | 174 | 1.0 | 2.0 | 0.00 | 0.00 | 0.00 | 87 | 1016.7 |
| 20260506081506 | 61 | 184 | 1.0 | 2.0 | 0.00 | 0.00 | 0.00 | 87 | 1016.6 |
| 20260506081004 | 61 | 175 | 0.0 | 2.0 | 0.00 | 0.00 | 0.00 | 87 | 1016.7 |
| 20260506080504 | 61 | 171 | 0.0 | 2.0 | 0.00 | 0.00 | 0.00 | 87 | 1016.7 |
| 20260506073508 | 61 | 203 | 0.0 | 2.0 | 0.00 | 0.00 | 0.00 | 87 | 1016.5 |
| 20260506073033 | 61 | 200 | 1.0 | 2.0 | 0.00 | 0.00 | 0.00 | 86 | 1016.5 |
| 20260506072504 | 61 | 178 | 1.0 | 2.0 | 0.00 | 0.00 | 0.00 | 87 | 1016.4 |
| 20260506072003 | 61 | 191 | 1.0 | 3.0 | 0.00 | 0.00 | 0.00 | 87 | 1016.4 |
| 20260506071505 | 61 | 187 | 1.0 | 4.0 | 0.00 | 0.00 | 0.00 | 87 | 1016.3 |
| 20260506071006 | 61 | 184 | 2.0 | 4.0 | 0.00 | 0.00 | 0.00 | 87 | 1016.4 |
| 20260506070503 | 61 | 160 | 2.0 | 3.0 | 0.00 | 0.00 | 0.00 | 88 | 1016.4 |
| 20260506062507 | 60 | 160 | 0.0 | 2.0 | 0.00 | 0.00 | 0.00 | 88 | 1017.1 |
| 20260506062010 | 60 | 160 | 1.0 | 2.0 | 0.00 | 0.00 | 0.00 | 88 | 1017.1 |
| 20260506061520 | 60 | 160 | 1.0 | 1.0 | 0.00 | 0.00 | 0.00 | 88 | 1017.1 |
| 20260506061004 | 60 | 160 | 1.0 | 1.0 | 0.00 | 0.00 | 0.00 | 88 | 1017.2 |
| 20260506060504 | 60 | 160 | 0.0 | 1.0 | 0.00 | 0.00 | 0.00 | 87 | 1017.3 |
| 20260506051008 | 61 | 179 | 1.0 | 2.0 | 0.00 | 0.00 | 0.00 | 87 | 1017.7 |
| 20260506050510 | 61 | 174 | 0.0 | 2.0 | 0.00 | 0.00 | 0.00 | 87 | 1017.7 |
| 20260506045003 | 62 | 178 | 0.0 | 2.0 | 0.00 | 0.00 | 0.00 | 86 | 1017.7 |
| 20260506044531 | 62 | 178 | 0.0 | 0.0 | 0.00 | 0.00 | 0.00 | 86 | 1017.8 |
| 20260506044003 | 62 | 178 | 0.0 | 2.0 | 0.00 | 0.00 | 0.00 | 86 | 1017.9 |
| 20260506043505 | 62 | 178 | 0.0 | 2.0 | 0.00 | 0.00 | 0.00 | 85 | 1017.9 |
| 20260506043017 | 62 | 178 | 0.0 | 2.0 | 0.00 | 0.00 | 0.00 | 85 | 1017.9 |
| 20260506042504 | 62 | 178 | 0.0 | 2.0 | 0.00 | 0.00 | 0.00 | 85 | 1017.9 |
| 20260506042011 | 62 | 178 | 0.0 | 0.0 | 0.00 | 0.00 | 0.00 | 84 | 1017.9 |
| 20260506041519 | 62 | 178 | 0.0 | 2.0 | 0.00 | 0.00 | 0.00 | 85 | 1018.0 |
| 20260506041009 | 62 | 178 | 0.0 | 2.0 | 0.00 | 0.00 | 0.00 | 1017.9 | |
| 20260506040508 | 62 | 178 | 0.0 | 2.0 | 0.00 | 0.00 | 0.00 | 1017.9 | |
| 20260506040022 | 62 | 178 | 0.0 | 2.0 | 0.00 | 0.00 | 0.00 | 1017.8 | |
| 20260506035511 | 63 | 176 | 1.0 | 2.0 | 0.00 | 0.00 | 0.00 | 83 | 1017.8 |
| 20260506035011 | 63 | 165 | 1.0 | 2.0 | 0.00 | 0.00 | 0.00 | 83 | 1017.9 |
| 20260506034518 | 63 | 165 | 0.0 | 2.0 | 0.00 | 0.00 | 0.00 | 83 | 1018.0 |
| 20260506034005 | 63 | 165 | 0.0 | 2.0 | 0.00 | 0.00 | 0.00 | 83 | 1018.0 |
| 20260506033504 | 63 | 165 | 0.0 | 0.0 | 0.00 | 0.00 | 0.00 | 82 | 1018.0 |
| 20260506033012 | 63 | 165 | 0.0 | 1.0 | 0.00 | 0.00 | 0.00 | 82 | 1018.2 |
| 20260506032507 | 64 | 165 | 0.0 | 1.0 | 0.00 | 0.00 | 0.00 | 82 | 1018.1 |
| 20260506032007 | 64 | 165 | 0.0 | 2.0 | 0.00 | 0.00 | 0.00 | 81 | 1018.0 |
| 20260506031517 | 64 | 165 | 0.0 | 2.0 | 0.00 | 0.00 | 0.00 | 81 | 1018.0 |